OneWeb SL0244

operational
NORAD ID: 48776 Int'l Des: 2021-045 Owner: ONEWEBN Country: UK Constellation: oneweb
LEOCIRCULARPOLARONEWEB_TYPE

About OneWeb SL0244

Description loading...

Live Position

Loading 3D Globe...

Upcoming Passes

Altitude History

Altitude vs Time

uPlot chart will show altitude changes over time

Two-Line Element Set

1 48776U 21045K 25303.98976100 .00000196 00000-0 48751-3 0 9991
2 48776 87.8971 304.8992 0001919 96.1512 263.9837 13.15548833214830
Epoch: Oct 30, 2025 • Age: 21 hours

Current Status

Altitude 1214.1 km
Velocity 7.25 km/s
Sub-Earth Point 85.16°N, 114.14°E
Launch Date May 28, 2021
Age 4.4 years
Type internet

Technical Details

Classification Payload
Mass 148.00 kg
Dry Mass 140.00 kg
Total Mass 148.00 kg
Length 1.30 m
Diameter 1.00 m
Span 5.00 m
Shape Trapezoid+2 pan
Manufacturer ONEWUS
Bus Type ARROW
Phase Status In Orbit
Owner/State ONEWEBN/UK

Large Constellations

Loading constellations...